Location: Bishop�s Knoyle
(51.0728°N, 2.1714°W)
Time: 13:20:41
(UTC+00:00)

NOSS 3-4 (C) - Pass Details

Date: 18 January 2021
Orbit: 878 x 1335 km, 63.4° (Epoch: 16 February)

Event Time Altitude Azimuth Distance (km) Brightness Sun altitude
Rises 17:31:03 0° 230° (SW) 3,477 8.1 -8.5°
Reaches altitude 10° 17:33:29 10° 233° (SW) 2,561 7.2 -8.9°
Maximum altitude 17:39:23 73° 318° (NW) 981 3.6 -9.7°
Drops below altitude 10° 17:45:52 10° 43° (NE) 2,791 5.4 -10.7°
Enters shadow 17:45:59 10° 44° (NE) 2,838 5.4 -10.7°
